Find Kuiper-00010

NORAD ID: 63726 Int'l Des: 2025-088 Owner: KUIP Country: US Constellation: kuiper operational
LEOCIRCULAR

实时位置

正在加载3D地球...

关于 Kuiper-00010

正在加载描述...

即将过境

Passes for default location (London). Set your location on the main map for personalized predictions.

高度历史

Loading altitude history...

两行轨道根数

1 63726U 25088C 26104.90344345 .00001209 00000-0 18740-3 0 9997
2 63726 51.9022 282.9592 0000783 106.5812 253.5237 14.79981405 53095
Epoch: Apr 14, 2026 • Age: 7 hours

当前状态

高度 633.9 km
速度 7.55 km/s
星下点 47.39°N, 130.36°E
发射日期 Apr 28, 2025
运行时间 0.9 years
类型 internet

技术详情

分类 Payload
质量 490.00 kg
干质量 490.00 kg
总质量 490.00 kg
长度 1.80 m
直径 0.70 m
跨度 5.00 m
形状 Box + 2 pan
制造商 KUIP
平台类型 Kuiper
阶段状态 In Orbit
所有者/国家 KUIP/US

Most Searched